Regional Weather Roundup
Issued by NWS Little Rock, AR

Home | Current Version | Previous Version | Graphics & Text | Print | Product List | Glossary Off
Versions: 1 2 3 4 5 6 7 8 9 10 11 12 13 14 15 16 17 18 19 20 21 22 23 24 25 26 27 28 29 30 31 32 33 34 35 36 37 38 39 40 41 42 43 44 45 46 47 48 49 50

419
ASUS44 KLZK 201105
RWRLZK

WEATHER ROUNDUP FOR ARKANSAS
NATIONAL WEATHER SERVICE LITTLE ROCK AR
600 AM CDT FRI APR 20 2018

NOTE: "FAIR" INDICATES FEW OR NO CLOUDS BELOW 12,000 FEET WITH NO
SIGNIFICANT WEATHER AND/OR OBSTRUCTIONS TO VISIBILITY.

ARZ001-003-010-029-201200-
NORTHWEST ARKANSAS

CITY           SKY/WX    TMP DP  RH WIND       PRES   REMARKS
FAYETTEVILLE   CLEAR     33  31  92 CALM      30.38R
FORT SMITH     CLEAR     43  35  73 E3        30.40R
HARRISON       CLOUDY    38  31  76 SE5       30.38F
BENTONVILLE    CLEAR     42  31  64 SE7       30.40R
ROGERS         CLEAR     41  32  70 SE8       30.39R
SILOAM SPGS    CLEAR     40  31  70 E7        30.38R
HIGHFILL       CLEAR     40  31  70 E5        30.38R
SPRINGDALE     CLEAR     39  32  75 E6        30.39
$$

ARZ004-005-016-201200-
NORTH CENTRAL ARKANSAS

CITY           SKY/WX    TMP DP  RH WIND       PRES   REMARKS
BATESVILLE     CLEAR     37  34  89 NW5       30.40S
FLIPPIN        CLOUDY    31  29  92 CALM      30.42R
MTN HOME       CLOUDY    38  31  76 E3        30.39R
$$

ARZ040-041-201200-
WEST CENTRAL ARKANSAS

CITY           SKY/WX    TMP DP  RH WIND       PRES   REMARKS
MENA           CLOUDY    37  36  93 CALM      30.37R
MOUNT IDA      PTCLDY    37  36  96 CALM      30.34R
$$

ARZ009-017-025-026-028-201200-
NORTHEAST ARKANSAS

CITY           SKY/WX    TMP DP  RH WIND       PRES   REMARKS
CORNING        FAIR      41  34  75 N6        30.41S
JONESBORO      FAIR      39  34  82 NE3       30.39F
NEWPORT        FAIR      38  36  92 N7        30.40S
WALNUT RIDGE   FAIR      39  34  82 N5        30.41R
BLYTHEVILLE    FAIR      36  33  89 N8        30.40S
$$

ARZ022-023-033-042-044-201200-
CENTRAL ARKANSAS

CITY           SKY/WX    TMP DP  RH WIND       PRES   REMARKS
LITTLE ROCK    PTCLDY    39  36  89 NE3       30.38R
N LITTLE ROCK    N/A     40  35  82 E6        30.35R
JACKSONVILLE   CLEAR     38  35  88 CALM      30.37S
CONWAY           N/A     37  36  93 N3        30.39R
SEARCY         FAIR      39  36  89 N5        30.39S
HOT SPRINGS    CLOUDY    42  35  76 CALM      30.37R
RUSSELLVILLE   CLEAR     40  34  79 CALM      30.38R
CLINTON        FAIR      34  32  93 CALM      30.40R
$$

ARZ036-201200-
EAST ARKANSAS

CITY           SKY/WX    TMP DP  RH WIND       PRES   REMARKS
WEST MEMPHIS   FAIR      39  37  92 NE3       30.37F
$$

ARZ050-053-066-070-073-201200-
SOUTHWEST ARKANSAS

CITY           SKY/WX    TMP DP  RH WIND       PRES   REMARKS
ARKADELPHIA    FAIR      41  37  86 N3        30.38R
CAMDEN         FAIR      39  34  81 CALM      30.36R
TEXARKANA      PTCLDY    42  37  82 NE6       30.35R
EL DORADO      FAIR      40  38  93 N5        30.35R
DE QUEEN       PTCLDY    41  39  93 CALM      30.36R
$$

ARZ056-057-069-201200-
SOUTHEAST ARKANSAS

CITY           SKY/WX    TMP DP  RH WIND       PRES   REMARKS
PINE BLUFF     FAIR      44  35  70 NE8       30.36S
STUTTGART      FAIR      43  36  76 NE9       30.37S
MONTICELLO     FAIR      40  36  86 NE3       30.34R

$$






USA.gov is the U.S. government's official web portal to all federal, state and local government web resources and services.